EW6155 Weather Reports


Display with metric or nautical units.
time (UTC)temp
F
wind
direction
speed
MPH
gust
MPH
rain 1hr
in
rain 24hr
in
rain mn
in
humidity
%
barometer
mb
20230205211924 55 231 4.0 12.0 0.00 0.00 0.00 19 1010.4
20230205211424 55 270 4.0 11.0 0.00 0.00 0.00 18 1010.4
20230205210924 55 250 4.0 13.0 0.00 0.00 0.00 18 1010.5
20230205210424 55 29 4.0 13.0 0.00 0.00 0.00 18 1010.5
20230205205923 55 233 4.0 10.0 0.00 0.00 0.00 18 1010.6
20230205205424 55 233 4.0 10.0 0.00 0.00 0.00 18 1010.6
20230205204424 55 233 4.0 13.0 0.00 0.00 0.00 18 1011.0
20230205203924 55 237 4.0 13.0 0.00 0.00 0.00 19 1011.0
20230205203425 56 238 4.0 11.0 0.00 0.00 0.00 18 1011.1
20230205202924 56 211 3.0 11.0 0.00 0.00 0.00 17 1011.5
20230205202422 56 194 2.0 10.0 0.00 0.00 0.00 18 1011.6
20230205201922 56 219 3.0 10.0 0.00 0.00 0.00 18 1011.6
20230205201422 56 222 4.0 11.0 0.00 0.00 0.00 19 1011.7
20230205200922 56 249 4.0 11.0 0.00 0.00 0.00 18 1011.7
20230205200426 55 141 2.0 9.0 0.00 0.00 0.00 18 1012.0
20230205200422 55 316 4.0 11.0 0.00 0.00 0.00 18 1011.9
20230205195422 55 273 2.0 5.0 0.00 0.00 0.00 19 1012.2
20230205194922 54 226 2.0 5.0 0.00 0.00 0.00 18 1012.4
20230205194422 53 284 2.0 4.0 0.00 0.00 0.00 20 1012.4
20230205193925 53 79 3.0 7.0 0.00 0.00 0.00 21 1012.6
20230205193920 52 118 2.0 7.0 0.00 0.00 0.00 22 1012.9
20230205192920 52 85 2.0 6.0 0.00 0.00 0.00 21 1012.9
20230205192420 51 80 3.0 6.0 0.00 0.00 0.00 19 1013.1
20230205191920 51 134 3.0 6.0 0.00 0.00 0.00 19 1013.2
20230205191419 51 105 3.0 8.0 0.00 0.00 0.00 20 1013.4
20230205190920 51 94 3.0 8.0 0.00 0.00 0.00 20 1013.6
20230205190420 50 20 3.0 7.0 0.00 0.00 0.00 20 1013.7
20230205185924 50 112 3.0 9.0 0.00 0.00 0.00 19 1014.1
20230205185920 50 70 3.0 9.0 0.00 0.00 0.00 20 1014.0
20230205184918 50 44 2.0 6.0 0.00 0.00 0.00 20 1014.1
20230205184418 49 80 3.0 8.0 0.00 0.00 0.00 20 1014.4
20230205183918 49 109 3.0 8.0 0.00 0.00 0.00 20 1014.5
20230205183418 48 134 4.0 7.0 0.00 0.00 0.00 19 1014.6
20230205182917 48 120 5.0 8.0 0.00 0.00 0.00 19 1014.7
20230205182420 48 194 4.0 8.0 0.00 0.00 0.00 20 1014.9
20230205182416 48 91 4.0 8.0 0.00 0.00 0.00 20 1014.9
20230205181416 48 79 3.0 7.0 0.00 0.00 0.00 19 1015.0
20230205180915 48 86 2.0 7.0 0.00 0.00 0.00 19 1015.1
20230205180415 48 113 3.0 6.0 0.00 0.00 0.00 19 1015.2
20230205175913 48 150 2.0 6.0 0.00 0.00 0.00 18 1015.4
20230205175414 47 95 2.0 6.0 0.00 0.00 0.00 20 1015.4
20230205174913 47 102 2.0 6.0 0.00 0.00 0.00 18 1015.4
20230205174413 47 136 2.0 4.0 0.00 0.00 0.00 19 1015.5
20230205173918 47 108 2.0 6.0 0.00 0.00 0.00 20 1015.6
20230205173914 47 146 2.0 4.0 0.00 0.00 0.00 19 1015.6
20230205172914 47 63 3.0 6.0 0.00 0.00 0.00 20 1015.7
20230205172413 47 55 2.0 6.0 0.00 0.00 0.00 18 1015.7
20230205171911 47 60 1.0 4.0 0.00 0.00 0.00 19 1015.9
20230205171411 46 58 1.0 3.0 0.00 0.00 0.00 21 1015.9
20230205170912 44 127 1.0 3.0 0.00 0.00 0.00 26 1015.7
20230205170411 43 89 1.0 2.0 0.00 0.00 0.00 27 1015.7
20230205165912 43 108 1.0 3.0 0.00 0.00 0.00 27 1015.7
20230205165411 43 101 1.0 3.0 0.00 0.00 0.00 30 1015.9
20230205164911 42 108 0.0 2.0 0.00 0.00 0.00 30 1016.0
20230205164412 42 124 0.0 1.0 0.00 0.00 0.00 29 1016.0
20230205163912 41 111 0.0 1.0 0.00 0.00 0.00 32 1016.1
20230205163411 40 131 0.0 1.0 0.00 0.00 0.00 30 1016.1
20230205162915 38 130 0.0 2.0 0.00 0.00 0.00 33 1016.4
20230205162911 39 131 0.0 2.0 0.00 0.00 0.00 33 1016.2
20230205161912 37 76 0.0 1.0 0.00 0.00 0.00 33 1016.4
20230205161411 37 73 0.0 1.0 0.00 0.00 0.00 35 1016.4
20230205160912 37 76 0.0 1.0 0.00 0.00 0.00 33 1016.2
20230205160409 36 76 0.0 1.0 0.00 0.00 0.00 34 1016.4
20230205155910 35 76 0.0 1.0 0.00 0.00 0.00 35 1016.4
20230205155409 35 343 0.0 1.0 0.00 0.00 0.00 38 1016.5
20230205154910 34 285 0.0 0.0 0.00 0.00 0.00 37 1016.6
20230205154410 34 285 0.0 0.0 0.00 0.00 0.00 36 1016.6
20230205153913 32 283 0.0 0.0 0.00 0.00 0.00 39 1016.6
20230205153909 33 285 0.0 0.0 0.00 0.00 0.00 37 1016.6
20230205152907 31 282 0.0 1.0 0.00 0.00 0.00 40 1016.6
20230205152410 31 283 0.0 1.0 0.00 0.00 0.00 42 1016.7
20230205152406 30 298 0.0 1.0 0.00 0.00 0.00 41 1016.7
20230205151401 30 271 0.0 1.0 0.00 0.00 0.00 37 1016.6
20230205150905 29 271 0.0 0.0 0.00 0.00 0.00 39 1016.9
20230205150901 29 271 0.0 0.0 0.00 0.00 0.00 39 1016.7
20230205150505 29 271 0.0 0.0 0.00 0.00 0.00 41 1017.0
20230205145401 28 271 0.0 0.0 0.00 0.00 0.00 42 1016.9
20230205144901 28 271 0.0 1.0 0.00 0.00 0.00 39 1017.0
20230205144401 27 271 0.0 1.0 0.00 0.00 0.00 38 1017.1
20230205143901 27 271 0.0 0.0 0.00 0.00 0.00 39 1017.1
20230205143401 26 271 0.0 0.0 0.00 0.00 0.00 41 1017.1
20230205142900 26 278 0.0 0.0 0.00 0.00 0.00 39 1017.1
20230205142359 26 278 0.0 0.0 0.00 0.00 0.00 39 1017.1
20230205141359 26 278 0.0 0.0 0.00 0.00 0.00 40 1017.1
20230205140859 27 278 0.0 0.0 0.00 0.00 0.00 39 1017.0
20230205140359 27 278 0.0 0.0 0.00 0.00 0.00 39 1017.0
20230205135859 27 278 0.0 1.0 0.00 0.00 0.00 38 1017.0
20230205135403 27 278 0.0 1.0 0.00 0.00 0.00 36 1017.1
20230205135359 27 278 0.0 1.0 0.00 0.00 0.00 40 1017.1
20230205134359 27 269 0.0 1.0 0.00 0.00 0.00 37 1017.0
20230205133859 28 268 0.0 1.0 0.00 0.00 0.00 35 1017.0
20230205133357 28 269 0.0 1.0 0.00 0.00 0.00 34 1017.1
20230205132857 28 266 0.0 0.0 0.00 0.00 0.00 34 1017.1
20230205132357 28 266 0.0 0.0 0.00 0.00 0.00 33 1017.1
20230205131901 29 266 0.0 1.0 0.00 0.00 0.00 33 1017.0
20230205131857 28 266 0.0 0.0 0.00 0.00 0.00 34 1017.1
20230205130857 28 266 0.0 1.0 0.00 0.00 0.00 34 1017.0
20230205130356 29 266 0.0 0.0 0.00 0.00 0.00 33 1017.0
20230205125857 29 266 0.0 0.0 0.00 0.00 0.00 32 1017.1
20230205125357 29 266 0.0 0.0 0.00 0.00 0.00 32 1017.1
20230205124901 29 266 0.0 1.0 0.00 0.00 0.00 34 1017.3
20230205124857 29 265 0.0 0.0 0.00 0.00 0.00 32 1017.1
20230205123900 30 257 0.0 0.0 0.00 0.00 0.00 29 1017.2
20230205123855 30 68 0.0 1.0 0.00 0.00 0.00 33 1017.3
20230205123459 30 257 0.0 0.0 0.00 0.00 0.00 31 1017.2
20230205122355 31 257 0.0 0.0 0.00 0.00 0.00 32 1017.3
20230205121855 31 257 0.0 0.0 0.00 0.00 0.00 30 1017.2
20230205121359 31 257 0.0 0.0 0.00 0.00 0.00 30 1017.1
20230205121355 31 257 0.0 0.0 0.00 0.00 0.00 29 1017.2
20230205120355 32 257 0.0 0.0 0.00 0.00 0.00 32 1017.3
20230205115854 33 257 0.0 1.0 0.00 0.00 0.00 33 1017.2
20230205115353 34 257 0.0 2.0 0.00 0.00 0.00 26 1017.3
20230205114853 35 257 1.0 2.0 0.00 0.00 0.00 27 1017.5
20230205114353 34 225 0.0 2.0 0.00 0.00 0.00 27 1017.5
20230205113853 34 228 0.0 2.0 0.00 0.00 0.00 28 1017.5
20230205113353 33 228 0.0 2.0 0.00 0.00 0.00 28 1017.5
20230205112853 33 232 0.0 2.0 0.00 0.00 0.00 30 1017.5
20230205112352 32 228 0.0 1.0 0.00 0.00 0.00 29 1017.5
20230205111853 32 248 0.0 2.0 0.00 0.00 0.00 33 1017.5
20230205111357 37 86 1.0 4.0 0.00 0.00 0.00 25 1017.5
20230205111352 34 100 1.0 4.0 0.00 0.00 0.00 31 1017.5
20230205110350 37 134 2.0 5.0 0.00 0.00 0.00 25 1017.6
20230205105851 36 235 2.0 5.0 0.00 0.00 0.00 25 1017.5
20230205105349 35 226 2.0 6.0 0.00 0.00 0.00 27 1017.5
20230205104853 31 233 1.0 3.0 0.00 0.00 0.00 32 1017.5
20230205104848 33 235 2.0 6.0 0.00 0.00 0.00 28 1017.5
20230205103849 30 168 1.0 2.0 0.00 0.00 0.00 35 1017.7
20230205103349 30 285 1.0 3.0 0.00 0.00 0.00 39 1017.6
20230205102349 29 301 0.0 2.0 0.00 0.00 0.00 43 1017.7
20230205101849 28 307 0.0 2.0 0.00 0.00 0.00 40 1017.7
20230205101346 28 255 0.0 1.0 0.00 0.00 0.00 39 1017.7
20230205100847 28 214 0.0 1.0 0.00 0.00 0.00 38 1017.6
20230205100344 28 290 0.0 1.0 0.00 0.00 0.00 40 1017.8
20230205095844 29 290 0.0 1.0 0.00 0.00 0.00 39 1017.7
20230205095345 29 289 0.0 2.0 0.00 0.00 0.00 38 1017.8
20230205094845 28 277 0.0 2.0 0.00 0.00 0.00 38 1017.8
20230205094345 28 277 0.0 1.0 0.00 0.00 0.00 40 1018.0
20230205093839 28 277 0.0 1.0 0.00 0.00 0.00 39 1018.1
20230205093339 27 277 0.0 1.0 0.00 0.00 0.00 41 1018.1
20230205092839 27 276 0.0 1.0 0.00 0.00 0.00 43 1018.1
20230205092339 26 275 1.0 1.0 0.00 0.00 0.00 44 1018.1
20230205091839 26 239 0.0 1.0 0.00 0.00 0.00 47 1018.2
20230205091339 26 325 0.0 1.0 0.00 0.00 0.00 45 1018.2
20230205090840 26 280 0.0 1.0 0.00 0.00 0.00 44 1018.1
20230205090339 26 279 0.0 2.0 0.00 0.00 0.00 45 1018.1
20230205085839 27 55 0.0 2.0 0.00 0.00 0.00 46 1018.1
20230205085338 27 88 0.0 1.0 0.00 0.00 0.00 40 1018.1
20230205084837 28 88 0.0 3.0 0.00 0.00 0.00 44 1018.2
20230205084341 29 8 1.0 3.0 0.00 0.00 0.00 40 1018.2
20230205084337 28 88 1.0 3.0 0.00 0.00 0.00 45 1018.3
20230205083337 28 273 0.0 2.0 0.00 0.00 0.00 40 1018.2
20230205082842 28 273 0.0 1.0 0.00 0.00 0.00 40 1018.1
20230205082837 28 273 0.0 1.0 0.00 0.00 0.00 39 1018.1
20230205081837 27 281 0.0 1.0 0.00 0.00 0.00 40 1018.1
20230205081337 28 281 0.0 1.0 0.00 0.00 0.00 43 1018.1
20230205080336 27 281 0.0 1.0 0.00 0.00 0.00 42 1018.1
20230205075839 27 281 0.0 1.0 0.00 0.00 0.00 43 1018.1
20230205075835 27 281 0.0 1.0 0.00 0.00 0.00 42 1018.2
20230205074839 27 281 0.0 1.0 0.00 0.00 0.00 44 1018.0
20230205074835 27 281 0.0 0.0 0.00 0.00 0.00 45 1018.1
20230205073834 27 284 0.0 1.0 0.00 0.00 0.00 49 1018.1
20230205073333 27 283 0.0 1.0 0.00 0.00 0.00 42 1018.1
20230205072832 28 276 0.0 0.0 0.00 0.00 0.00 43 1018.1
20230205072333 28 275 0.0 1.0 0.00 0.00 0.00 41 1018.3
20230205071832 28 277 0.0 1.0 0.00 0.00 0.00 41 1018.3
20230205071332 28 275 0.0 1.0 0.00 0.00 0.00 41 1018.3
20230205070833 28 277 0.0 1.0 0.00 0.00 0.00 42 1018.3
20230205070333 28 276 0.0 1.0 0.00 0.00 0.00 43 1018.5
20230205065835 28 277 0.0 1.0 0.00 0.00 0.00 43 1018.5
20230205065830 28 276 0.0 1.0 0.00 0.00 0.00 43 1018.6
20230205064830 28 281 0.0 1.0 0.00 0.00 0.00 44 1018.6
20230205064331 28 281 1.0 3.0 0.00 0.00 0.00 46 1018.6
20230205063831 28 281 1.0 3.0 0.00 0.00 0.00 47 1018.7
20230205063330 28 276 0.0 1.0 0.00 0.00 0.00 46 1018.7
20230205062828 28 276 0.0 1.0 0.00 0.00 0.00 46 1018.8
20230205062326 28 276 0.0 1.0 0.00 0.00 0.00 44 1018.7
20230205061826 28 276 0.0 1.0 0.00 0.00 0.00 42 1018.7
20230205061327 28 276 0.0 1.0 0.00 0.00 0.00 44 1018.7
20230205060827 28 276 0.0 1.0 0.00 0.00 0.00 47 1018.8
20230205060326 28 276 0.0 1.0 0.00 0.00 0.00 46 1019.0
20230205055825 28 271 0.0 3.0 0.00 0.00 0.00 43 1019.0
20230205055322 28 312 1.0 3.0 0.00 0.00 0.00 44 1019.1
20230205054822 28 117 0.0 1.0 0.00 0.00 0.00 43 1018.8
20230205054323 28 278 0.0 1.0 0.00 0.00 0.00 43 1019.0
20230205053823 28 271 0.0 2.0 0.00 0.00 0.00 44 1019.0
20230205053322 28 274 1.0 2.0 0.00 0.00 0.00 42 1019.1
20230205052821 28 274 0.0 1.0 0.00 0.00 0.00 44 1019.0
20230205052321 28 271 0.0 1.0 0.00 0.00 0.00 45 1019.0
20230205051820 29 110 0.0 1.0 0.00 0.00 0.00 46 1019.0
20230205051321 29 283 0.0 2.0 0.00 0.00 0.00 42 1019.0
20230205050821 29 283 1.0 2.0 0.00 0.00 0.00 44 1018.8
20230205050321 28 280 1.0 2.0 0.00 0.00 0.00 45 1018.8
20230205045820 29 249 0.0 2.0 0.00 0.00 0.00 43 1018.8
20230205045321 29 264 0.0 1.0 0.00 0.00 0.00 43 1018.7
20230205044820 29 264 0.0 2.0 0.00 0.00 0.00 43 1018.6
20230205044320 29 264 0.0 2.0 0.00 0.00 0.00 44 1018.6
20230205043820 30 233 0.0 2.0 0.00 0.00 0.00 43 1018.6
20230205043321 30 277 0.0 1.0 0.00 0.00 0.00 42 1018.5
20230205042820 30 277 0.0 1.0 0.00 0.00 0.00 41 1018.5
20230205042320 31 315 0.0 1.0 0.00 0.00 0.00 42 1018.5
20230205041821 31 293 0.0 1.0 0.00 0.00 0.00 40 1018.3
20230205041321 31 293 0.0 1.0 0.00 0.00 0.00 39 1018.5
20230205040820 32 293 0.0 1.0 0.00 0.00 0.00 39 1018.5
20230205040320 32 278 0.0 1.0 0.00 0.00 0.00 39 1018.3
20230205035820 33 281 0.0 2.0 0.00 0.00 0.00 39 1018.3
20230205035321 33 281 1.0 2.0 0.00 0.00 0.00 35 1018.5
20230205035317 33 281 0.0 2.0 0.00 0.00 0.00 36 1018.3
20230205034316 32 271 0.0 1.0 0.00 0.00 0.00 36 1018.3
20230205033814 32 269 0.0 1.0 0.00 0.00 0.00 38 1018.5
20230205033315 32 281 0.0 1.0 0.00 0.00 0.00 36 1018.5
20230205033311 33 281 0.0 1.0 0.00 0.00 0.00 35 1018.6
20230205032314 33 281 1.0 2.0 0.00 0.00 0.00 36 1018.7
20230205032310 33 252 1.0 2.0 0.00 0.00 0.00 35 1018.5
20230205031310 33 277 0.0 2.0 0.00 0.00 0.00 40 1018.5
20230205030810 33 277 1.0 3.0 0.00 0.00 0.00 37 1018.6
20230205030315 34 285 1.0 3.0 0.00 0.00 0.00 34 1018.3
20230205030311 34 276 1.0 3.0 0.00 0.00 0.00 35 1018.3
20230205025309 34 283 1.0 3.0 0.00 0.00 0.00 38 1018.1
20230205024810 35 248 1.0 3.0 0.00 0.00 0.00 35 1018.6
20230205024310 35 305 2.0 5.0 0.00 0.00 0.00 35 1018.3
20230205023810 36 108 2.0 5.0 0.00 0.00 0.00 31 1018.3
20230205023310 34 165 1.0 5.0 0.00 0.00 0.00 37 1018.2
20230205022810 35 285 1.0 3.0 0.00 0.00 0.00 33 1018.5
20230205022310 34 262 1.0 3.0 0.00 0.00 0.00 34 1018.3
20230205021810 34 162 1.0 3.0 0.00 0.00 0.00 38 1018.2
20230205021311 35 268 1.0 2.0 0.00 0.00 0.00 36 1018.2
20230205020809 35 281 1.0 2.0 0.00 0.00 0.00 36 1018.6
20230205020308 36 249 1.0 3.0 0.00 0.00 0.00 37 1018.2
20230205015808 37 260 1.0 6.0 0.00 0.00 0.00 31 1018.3
20230205015308 37 246 3.0 7.0 0.00 0.00 0.00 33 1018.2
20230205014812 35 142 1.0 6.0 0.00 0.00 0.00 35 1018.3
20230205014808 36 188 2.0 7.0 0.00 0.00 0.00 33 1018.3
20230205013808 35 265 1.0 4.0 0.00 0.00 0.00 39 1018.3
20230205013308 35 23 2.0 5.0 0.00 0.00 0.00 42 1018.2
20230205012807 35 276 2.0 7.0 0.00 0.00 0.00 38 1018.2
20230205012308 36 120 2.0 7.0 0.00 0.00 0.00 38 1017.7
20230205011812 37 269 0.0 2.0 0.00 0.00 0.00 37 1017.6
20230205011808 36 282 1.0 3.0 0.00 0.00 0.00 36 1018.2
20230205010806 38 302 1.0 2.0 0.00 0.00 0.00 32 1017.7
20230205010307 38 267 1.0 3.0 0.00 0.00 0.00 32 1017.7
20230205005806 39 278 1.0 4.0 0.00 0.00 0.00 31 1017.7
20230205005310 40 245 2.0 7.0 0.00 0.00 0.00 33 1017.6
20230205005306 39 311 1.0 6.0 0.00 0.00 0.00 31 1017.6
20230205004306 40 50 2.0 7.0 0.00 0.00 0.00 32 1017.6
20230205003806 41 236 1.0 5.0 0.00 0.00 0.00 31 1017.6
20230205003306 41 222 1.0 5.0 0.00 0.00 0.00 28 1017.7
20230205002805 41 212 1.0 5.0 0.00 0.00 0.00 28 1017.6
20230205002309 42 266 1.0 4.0 0.00 0.00 0.00 28 1017.7
20230205002305 42 132 1.0 4.0 0.00 0.00 0.00 28 1017.5
20230205001304 42 240 1.0 3.0 0.00 0.00 0.00 28 1017.7
20230205000805 42 304 2.0 5.0 0.00 0.00 0.00 27 1017.7
20230205000801 42 200 2.0 5.0 0.00 0.00 0.00 26 1017.7
20230205000404 42 295 1.0 4.0 0.00 0.00 0.00 26 1017.6
20230204235300 43 322 0.0 3.0 0.00 0.00 0.00 26 1017.5
20230204234804 44 262 2.0 6.0 0.00 0.00 0.00 23 1017.6
20230204234800 43 274 1.0 4.0 0.00 0.00 0.00 24 1017.6
20230204233800 44 154 2.0 7.0 0.00 0.00 0.00 22 1017.7
20230204233300 45 236 2.0 8.0 0.00 0.00 0.00 22 1017.7
20230204232800 45 354 3.0 11.0 0.00 0.00 0.00 20 1017.8
20230204232300 45 191 3.0 21.0 0.00 0.00 0.00 21 1017.8
20230204231800 45 264 3.0 21.0 0.00 0.00 0.00 22 1017.5
20230204231303 45 302 3.0 10.0 0.00 0.00 0.00 24 1017.3
20230204231259 46 300 3.0 8.0 0.00 0.00 0.00 21 1017.5
20230204230302 46 13 2.0 7.0 0.00 0.00 0.00 22 1017.6
20230204230257 46 305 2.0 7.0 0.00 0.00 0.00 21 1017.6
20230204225257 46 300 2.0 7.0 0.00 0.00 0.00 22 1017.5
20230204224757 46 44 2.0 11.0 0.00 0.00 0.00 23 1017.7
20230204223757 47 269 3.0 10.0 0.00 0.00 0.00 23 1018.0
20230204223258 47 238 2.0 10.0 0.00 0.00 0.00 23 1018.0
20230204222758 47 50 2.0 8.0 0.00 0.00 0.00 24 1018.0
20230204222256 47 121 1.0 8.0 0.00 0.00 0.00 23 1017.8
20230204221800 47 226 2.0 10.0 0.00 0.00 0.00 24 1017.6
20230204221756 47 161 2.0 10.0 0.00 0.00 0.00 22 1017.6
20230204220755 47 118 3.0 10.0 0.00 0.00 0.00 23 1017.5
20230204220256 47 245 3.0 10.0 0.00 0.00 0.00 23 1017.6
20230204215755 48 355 3.0 11.0 0.00 0.00 0.00 22 1017.6
20230204215300 48 291 3.0 9.0 0.00 0.00 0.00 22 1017.5
20230204215256 48 120 3.0 11.0 0.00 0.00 0.00 22 1017.6
20230204214255 48 221 3.0 8.0 0.00 0.00 0.00 22 1017.6
20230204213755 49 244 3.0 8.0 0.00 0.00 0.00 21 1017.8
20230204212755 49 134 2.0 11.0 0.00 0.00 0.00 21 1017.7
20230204212255 49 354 2.0 6.0 0.00 0.00 0.00 21 1017.6